Temp
72 71 68 68 69 70 70 70 70 70 71 72 71 72 72 71 70 69 69 69 68 68 68 67 67 68 69 69 69 69 68 68 67 67 64 63 64 64 64 64 63 63 63 60 61 63 58 57 58 61 61 62 62 63 64 64 64 64 64 63 63 63 62
72 69 68 68 68 69 69 69 70 70 70 71 71 71 72 71 71 70 69 68 68 68 69 68 68 68 68 68 67 67 67 67 66 67 66 64 65 64 63 62 63 63 63 63 62 61 56 57 55 57 58 60 61 62 62 63 64 64 64 64 64 64 63
69 68 68 67 68 68 69 68 69 69 69 69 70 71 71 71 70 70 69 69 68 68 69 68 68 68 68 68 68 68 67 67 67 67 67 66 66 66 66 65 65 61 63 62 62 62 60 59 57 57 58 58 57 59 60 61 62 63 65 65 65 64 63
69 68 67 66 67 67 68 68 68 69 69 69 69 70 70 71 70 70 69 69 69 69 70 68 69 69 68 68 68 67 67 67 67 67 66 66 65 65 65 65 66 65 63 62 62 60 61 57 54 57 59 59 58 57 59 62 62 63 64 64 63 62 61
70 70 69 67 67 67 68 67 68 68 68 69 68 68 69 70 70 68 69 69 69 69 69 69 69 69 70 69 67 67 67 67 68 67 66 65 65 64 65 64 64 65 65 65 64 63 62 60 59 56 56 58 58 58 59 59 62 62 63 64 64 62 61
71 71 69 68 68 68 68 67 67 67 67 67 67 68 68 69 69 68 68 68 68 69 69 69 69 69 69 68 68 68 68 67 66 66 64 65 65 64 64 64 64 64 64 63 61 62 60 59 58 55 57 59 56 57 59 60 58 62 63 63 63 62 61
71 71 70 69 68 69 68 68 68 68 68 68 67 68 69 70 69 69 70 69 69 69 69 69 69 69 69 69 69 69 69 68 66 66 65 65 64 65 64 63 63 63 63 62 61 60 59 58 57 57 55 56 56 56 57 58 59 59 61 63 63 62 62
72 71 70 70 69 69 69 69 69 69 68 68 69 69 69 69 69 68 69 69 69 70 69 69 69 69 69 69 69 70 69 67 67 66 65 65 65 64 63 63 64 62 62 62 61 61 62 61 60 58 57 54 55 56 55 58 58 59 61 61 63 61 61
72 72 70 69 69 70 69 69 69 68 69 69 69 69 69 70 68 68 69 70 70 70 70 70 69 69 68 68 68 68 66 67 67 66 65 64 65 65 64 62 63 63 62 62 62 61 62 62 61 60 59 58 56 53 56 56 57 58 63 60 61 62 61
72 72 70 69 69 70 69 69 69 69 69 69 69 70 69 69 68 69 69 69 70 70 70 70 69 69 68 68 68 66 65 64 64 62 62 62 62 63 62 62 62 62 61 60 61 61 62 62 62 61 60 59 59 56 54 55 57 57 60 63 59 60 62
73 73 71 69 69 68 68 69 68 68 69 69 70 70 69 69 68 70 69 69 70 70 70 69 69 69 68 68 68 66 64 63 62 62 62 62 61 62 61 61 61 61 61 60 61 60 61 61 61 61 60 60 60 58 56 55 56 58 58 61 63 59 60
73 73 71 71 69 68 68 68 68 69 69 69 69 68 68 68 68 69 69 69 69 70 69 69 69 68 68 68 67 65 64 63 62 61 61 61 61 62 62 62 61 62 61 61 61 61 61 61 61 61 60 60 59 59 58 56 54 56 61 58 62 63 60
72 72 71 70 69 69 69 69 69 68 69 69 69 69 69 69 68 68 68 69 69 69 69 68 69 68 68 68 67 66 64 64 63 62 61 61 61 61 61 61 62 62 61 61 60 60 61 61 62 61 61 60 60 59 59 57 56 57 59 60 60 61 61
71 71 70 70 69 69 69 69 69 70 68 68 69 69 69 69 69 69 69 69 69 69 68 68 68 68 68 67 67 66 65 64 64 62 62 60 61 61 61 61 61 61 61 61 61 60 61 61 61 62 61 61 60 60 59 58 56 56 58 58 60 59 60
71 70 69 68 68 69 69 69 69 69 68 69 69 69 70 70 69 69 69 69 69 69 69 69 68 68 68 67 66 66 66 64 63 62 61 61 60 61 60 61 61 62 62 62 61 61 61 61 60 60 60 60 60 59 59 58 56 55 56 57 56 59 58
70 68 68 68 68 69 69 69 69 69 69 69 69 70 70 70 70 69 69 69 69 69 69 68 68 67 67 67 66 65 65 64 63 62 61 61 61 60 60 59 60 60 60 60 60 60 60 61 61 60 60 60 59 59 59 59 56 55 55 54 57 57 58
67 67 67 68 68 68 68 68 69 70 70 69 69 70 70 70 70 70 69 69 69 69 68 68 67 68 67 67 66 66 65 64 63 63 63 62 61 60 60 58 58 58 59 59 59 59 59 59 59 59 59 58 59 60 60 60 59 56 55 55 57 57 58
66 66 67 67 67 68 67 68 68 70 69 69 70 69 69 70 70 70 70 69 68 68 68 68 67 67 67 66 66 66 65 64 63 63 63 63 63 61 60 60 59 58 58 58 58 58 59 60 60 59 59 59 59 60 60 60 59 59 57 57 56 58 59
65 66 67 66 67 67 67 68 68 69 70 69 69 69 69 70 70 70 69 69 69 68 68 68 68 67 67 66 66 66 66 64 63 64 63 63 62 61 61 60 58 58 58 58 56 57 59 59 58 56 56 57 58 58 58 58 59 58 57 56 58 57 58
65 66 66 66 67 67 67 68 68 68 69 69 69 69 69 69 70 70 69 69 69 69 68 68 68 67 67 67 66 65 63 62 61 62 61 62 61 60 59 59 59 59 59 57 57 57 58 58 57 55 54 56 57 58 58 56 55 56 56 56 57 59 58
65 65 65 66 66 67 67 67 68 68 68 69 69 69 69 69 69 69 69 69 69 69 69 68 67 67 67 66 65 64 64 63 62 60 59 60 59 59 59 60 60 59 58 57 57 55 55 54 53 54 55 57 57 57 57 56 56 56 57 56 56 55 55
65 65 65 65 66 66 67 67 67 67 68 68 69 69 69 70 68 68 67 66 68 69 69 69 67 67 67 66 65 64 63 63 62 61 60 59 59 59 60 60 59 57 59 59 58 57 57 58 57 56 55 55 56 56 55 55 54 54 56 57 56 57 56
66 65 65 65 66 66 66 66 66 67 67 68 68 68 68 69 69 68 67 66 66 68 68 67 65 61 62 65 64 63 61 61 61 60 60 59 58 58 59 59 61 61 58 56 54 50 49 52 55 57 54 52 52 53 52 52 52 53 56 57 56 56 55
66 65 65 65 65 66 66 66 66 66 66 67 67 67 66 65 65 65 66 66 65 65 65 63 53 51 52 56 63 62 61 61 62 61 60 59 58 57 56 56 57 59 57 54 52 48 48 47 47 48 50 52 54 53 52 51 50 50 51 53 53 53 54
66 66 65 65 65 66 66 66 65 65 65 65 65 64 64 66 66 65 65 64 63 63 61 54 48 49 50 52 57 63 63 63 62 61 61 59 58 56 56 57 57 56 56 55 54 53 50 46 46 46 46 45 44 44 48 51 50 48 48 49 49 49 52
67 66 65 65 66 66 65 65 65 65 65 64 63 65 65 65 65 65 64 63 61 60 58 48 48 49 49 50 52 60 63 63 62 61 59 58 57 57 57 57 56 57 58 59 56 53 53 51 49 48 49 49 49 47 41 42 47 50 50 49 48 47 46
67 66 66 66 66 65 65 65 65 64 64 63 64 64 64 64 64 64 64 63 60 60 57 49 47 48 49 48 49 55 62 62 61 60 59 57 57 58 58 58 56 55 55 54 53 52 51 51 50 49 48 47 47 48 47 46 45 46 50 50 49 49 48
67 66 66 66 65 65 65 64 64 62 63 63 64 63 63 63 64 64 63 62 61 59 58 46 46 47 47 48 48 54 61 61 59 58 57 57 57 57 56 57 56 54 53 52 52 52 51 50 49 48 47 46 45 44 44 44 44 48 50 50 49 48 47
67 66 66 66 65 65 64 64 63 61 61 61 60 60 61 62 62 62 61 61 59 57 54 44 45 46 46 46 47 60 60 59 58 57 57 56 56 56 55 55 54 53 52 52 53 49 51 51 49 48 47 46 46 46 45 44 41 44 47 48 48 47 46
66 66 66 65 65 64 63 62 61 61 61 61 61 61 61 61 61 61 60 60 59 56 53 46 44 44 44 44 51 59 59 58 58 57 56 56 56 56 56 55 55 53 53 52 49 44 46 52 49 48 48 46 46 47 45 46 44 42 42 42 41 41 42
66 66 66 65 64 63 62 62 61 61 62 61 60 60 62 61 60 60 60 59 59 57 55 48 42 43 42 45 55 59 58 58 57 56 56 55 55 55 57 59 58 54 53 52 44 43 45 51 50 48 48 47 47 46 45 46 48 46 43 43 43 43 43
66 66 66 65 65 63 62 62 61 61 61 61 60 61 61 61 60 59 59 59 59 58 57 49 41 41 42 45 54 58 59 58 56 54 53 51 52 55 56 58 57 55 55 51 42 43 45 52 50 49 48 48 46 46 46 46 48 48 47 48 48 50 49
66 66 66 65 64 63 61 61 60 60 60 60 60 61 60 61 59 58 58 58 59 58 54 50 45 40 42 45 50 58 58 58 55 53 52 53 51 50 53 54 53 47 46 44 42 42 45 47 51 49 49 48 47 47 47 45 46 46 46 46 45 47 47
66 66 66 65 63 62 61 61 60 60 60 60 60 60 60 60 59 57 57 59 58 56 53 50 46 41 42 42 45 53 58 58 55 54 53 52 51 50 50 51 49 45 43 43 42 42 44 45 48 51 50 50 50 50 46 47 49 51 47 46 46 45 47
64 65 64 63 62 61 61 62 61 61 60 60 60 60 59 58 58 57 57 58 57 55 54 51 49 42 41 41 44 49 56 56 56 55 52 51 49 50 49 48 48 45 42 42 42 43 44 45 46 53 51 46 44 43 49 49 48 47 47 46 45 45 46
62 63 63 62 62 60 60 60 60 60 60 59 59 59 59 58 58 57 57 56 55 53 51 50 46 47 42 42 43 46 48 51 48 56 54 51 50 49 47 47 48 45 41 42 42 42 43 43 47 50 44 42 43 43 48 49 48 47 46 46 46 46 45
63 63 62 62 61 60 60 60 60 60 60 60 59 59 58 58 58 57 56 55 54 51 50 49 45 45 45 42 42 42 44 46 48 54 55 53 50 48 47 47 46 41 41 41 42 42 42 44 49 43 42 42 42 46 52 49 49 48 46 46 46 45 46
MSLP
1010.79 1010.99 1011.03 1011.11 1011.19 1011.39 1011.71 1011.83 1011.95 1012.19 1012.31 1012.43 1012.63 1012.79 1012.83 1013.07 1013.31 1013.55 1013.71 1013.95 1014.19 1014.43 1014.63 1014.99 1015.35 1015.55 1015.63 1015.63 1015.75 1015.91 1016.11 1016.31 1016.59 1016.95 1017.03 1016.99 1017.31 1017.19 1016.95 1017.03 1016.87 1016.75 1016.83 1016.71 1016.75 1017.31 1017.95 1018.83 1018.75 1018.19 1018.23 1018.83 1019.03 1018.95 1018.91 1018.67 1018.27 1018.35 1018.63 1018.87 1019.07 1019.31 1019.55
1010.55 1010.87 1011.03 1011.15 1011.39 1011.43 1011.75 1011.87 1011.95 1012.11 1012.31 1012.43 1012.51 1012.63 1012.79 1012.91 1013.11 1013.35 1013.59 1013.87 1014.15 1014.39 1014.51 1014.91 1015.23 1015.39 1015.43 1015.63 1015.87 1016.11 1016.23 1016.31 1016.35 1016.35 1016.59 1016.75 1016.83 1016.91 1017.11 1017.11 1016.95 1016.87 1016.83 1016.79 1017.03 1017.23 1017.87 1018.79 1019.31 1019.39 1019.27 1018.83 1018.67 1018.75 1018.83 1019.23 1018.79 1018.39 1018.43 1018.59 1018.79 1019.07 1019.43
1010.63 1010.91 1010.99 1011.31 1011.39 1011.47 1011.71 1011.83 1011.95 1012.15 1012.27 1012.51 1012.59 1012.59 1012.75 1012.83 1012.99 1013.19 1013.47 1013.75 1014.03 1014.23 1014.47 1014.79 1015.07 1015.27 1015.35 1015.47 1015.59 1015.79 1015.87 1016.03 1016.03 1016.07 1016.23 1016.23 1016.39 1016.39 1016.39 1016.55 1016.95 1017.07 1017.07 1017.15 1017.27 1017.35 1018.07 1018.55 1018.87 1018.87 1018.87 1019.03 1019.15 1018.71 1018.47 1018.79 1019.27 1019.03 1018.59 1018.63 1018.79 1019.11 1019.39
1010.63 1010.87 1011.23 1011.43 1011.43 1011.55 1011.63 1011.79 1011.87 1012.03 1012.15 1012.39 1012.51 1012.67 1012.67 1012.75 1012.95 1013.11 1013.35 1013.59 1013.83 1014.07 1014.35 1014.67 1014.95 1015.11 1015.23 1015.31 1015.39 1015.55 1015.67 1015.71 1015.71 1015.79 1015.95 1016.03 1016.15 1016.27 1016.31 1016.39 1016.43 1016.55 1016.75 1017.07 1017.11 1017.59 1017.91 1018.35 1018.71 1018.75 1018.55 1018.39 1018.67 1018.79 1018.35 1018.67 1018.63 1018.91 1019.03 1018.71 1018.79 1019.07 1019.31
1010.43 1010.83 1010.99 1011.23 1011.35 1011.35 1011.43 1011.71 1011.83 1012.03 1012.19 1012.31 1012.47 1012.63 1012.75 1012.71 1012.87 1013.11 1013.23 1013.47 1013.79 1014.03 1014.27 1014.43 1014.67 1014.87 1014.99 1015.07 1015.23 1015.35 1015.39 1015.31 1015.35 1015.59 1015.75 1015.95 1015.99 1016.07 1016.07 1016.07 1016.07 1015.99 1016.11 1016.27 1016.27 1016.59 1017.19 1017.59 1017.83 1018.19 1018.55 1018.47 1018.75 1018.63 1018.43 1018.51 1018.55 1018.47 1018.67 1018.71 1018.63 1018.95 1019.27
1010.07 1010.51 1010.83 1011.11 1011.15 1011.19 1011.27 1011.55 1011.75 1011.95 1012.15 1012.47 1012.51 1012.59 1012.63 1012.67 1012.79 1013.11 1013.27 1013.51 1013.75 1013.91 1014.07 1014.27 1014.47 1014.63 1014.83 1014.95 1015.03 1015.03 1014.99 1015.15 1015.39 1015.59 1015.67 1015.59 1015.63 1015.87 1015.83 1015.71 1015.71 1015.79 1015.83 1015.75 1015.95 1016.19 1016.75 1017.67 1018.19 1018.31 1018.47 1018.07 1018.35 1018.59 1018.47 1018.27 1018.51 1018.47 1018.19 1018.31 1018.39 1018.79 1019.15
1009.63 1010.15 1010.63 1010.91 1011.03 1010.95 1010.99 1011.19 1011.39 1011.59 1011.95 1012.11 1012.31 1012.43 1012.39 1012.47 1012.63 1012.75 1012.91 1013.19 1013.43 1013.67 1013.87 1014.07 1014.27 1014.43 1014.59 1014.79 1014.79 1014.75 1014.71 1014.95 1015.23 1015.31 1015.23 1015.27 1015.43 1015.35 1015.35 1015.55 1015.63 1015.59 1015.55 1015.67 1015.87 1016.27 1016.67 1016.79 1017.19 1017.43 1018.11 1018.51 1018.23 1018.47 1018.39 1018.35 1018.27 1018.59 1018.27 1018.07 1018.27 1018.59 1018.95
1009.03 1009.75 1010.35 1010.67 1010.95 1010.95 1010.87 1010.95 1011.15 1011.35 1011.67 1011.87 1012.03 1012.11 1012.19 1012.31 1012.43 1012.63 1012.79 1012.99 1013.23 1013.47 1013.67 1013.91 1014.11 1014.27 1014.39 1014.51 1014.43 1014.35 1014.55 1014.87 1015.03 1015.03 1015.15 1015.23 1015.27 1015.27 1015.35 1015.31 1015.31 1015.39 1015.43 1015.63 1015.87 1016.07 1016.19 1016.43 1016.79 1017.07 1017.71 1018.79 1018.79 1018.59 1018.63 1018.35 1018.35 1018.27 1017.83 1017.95 1018.23 1018.59 1018.75
1008.39 1009.31 1010.07 1010.55 1010.75 1010.71 1010.79 1010.83 1011.07 1011.23 1011.43 1011.67 1011.83 1011.91 1011.99 1012.07 1012.31 1012.55 1012.67 1012.83 1012.99 1013.23 1013.47 1013.71 1013.95 1014.15 1014.27 1014.31 1014.23 1014.27 1014.79 1014.83 1014.87 1015.03 1015.15 1015.11 1015.03 1014.99 1015.03 1015.15 1015.31 1015.27 1015.35 1015.51 1015.67 1016.03 1016.11 1016.31 1016.87 1016.95 1017.19 1017.87 1018.27 1018.75 1018.63 1018.63 1018.43 1018.23 1017.71 1017.95 1018.39 1018.47 1018.71
1008.15 1008.95 1009.75 1010.35 1010.63 1010.71 1010.75 1010.83 1010.95 1011.11 1011.31 1011.47 1011.63 1011.67 1011.87 1011.95 1012.11 1012.31 1012.55 1012.71 1012.95 1013.11 1013.31 1013.51 1013.75 1013.91 1014.07 1014.11 1014.11 1014.43 1014.87 1014.79 1014.87 1015.11 1015.11 1015.19 1015.19 1015.15 1015.23 1015.27 1015.23 1015.23 1015.35 1015.47 1015.63 1016.03 1016.43 1016.75 1016.79 1016.99 1017.35 1017.59 1017.31 1017.47 1018.43 1018.55 1018.27 1018.19 1017.75 1017.47 1018.11 1018.67 1018.59
1007.79 1008.47 1009.39 1010.11 1010.55 1010.87 1010.95 1010.87 1010.95 1011.19 1011.23 1011.27 1011.35 1011.51 1011.67 1011.87 1012.07 1012.15 1012.39 1012.63 1012.79 1012.99 1013.23 1013.43 1013.63 1013.79 1013.99 1013.99 1013.95 1014.47 1014.71 1014.71 1014.87 1014.99 1015.03 1015.07 1015.11 1015.07 1015.11 1015.23 1015.27 1015.27 1015.27 1015.43 1015.51 1015.87 1016.51 1016.67 1016.47 1016.59 1016.75 1016.87 1016.75 1016.87 1017.27 1017.83 1017.87 1017.51 1017.55 1017.39 1017.39 1018.23 1018.67
1007.63 1008.15 1009.07 1009.75 1010.43 1010.87 1010.99 1010.95 1010.95 1010.95 1011.03 1011.15 1011.27 1011.47 1011.63 1011.79 1011.99 1012.15 1012.27 1012.55 1012.71 1012.95 1013.15 1013.39 1013.51 1013.71 1013.83 1014.03 1014.03 1014.39 1014.67 1014.71 1014.83 1014.91 1015.03 1015.11 1015.11 1015.07 1015.15 1015.23 1015.19 1015.23 1015.23 1015.31 1015.43 1015.59 1015.83 1015.99 1016.03 1016.23 1016.43 1016.43 1016.51 1016.75 1016.95 1017.03 1017.63 1017.03 1017.07 1017.51 1017.31 1017.39 1018.11
1007.55 1007.99 1008.83 1009.63 1010.35 1010.71 1010.87 1010.91 1010.87 1010.95 1010.95 1011.03 1011.15 1011.27 1011.47 1011.67 1011.87 1012.07 1012.23 1012.39 1012.63 1012.83 1013.07 1013.27 1013.39 1013.59 1013.79 1013.87 1013.83 1014.11 1014.59 1014.75 1014.87 1014.87 1014.95 1015.11 1015.11 1015.07 1015.11 1015.15 1015.15 1015.15 1015.27 1015.43 1015.55 1015.51 1015.55 1015.75 1015.75 1015.95 1016.11 1016.27 1016.55 1016.63 1016.87 1016.95 1017.15 1017.19 1016.95 1017.11 1017.51 1017.83 1018.03
1007.63 1007.99 1008.83 1009.43 1010.11 1010.55 1010.75 1010.71 1010.67 1010.63 1010.83 1011.03 1011.03 1011.27 1011.39 1011.55 1011.71 1011.83 1012.07 1012.27 1012.51 1012.75 1012.95 1013.19 1013.27 1013.43 1013.63 1013.75 1013.71 1013.79 1014.27 1014.67 1014.83 1014.87 1014.91 1015.07 1015.15 1015.11 1015.07 1015.11 1015.11 1015.23 1015.27 1015.39 1015.47 1015.51 1015.59 1015.75 1015.95 1015.91 1015.95 1016.11 1016.39 1016.55 1016.75 1016.95 1017.27 1017.39 1017.23 1017.15 1017.39 1017.87 1018.23
1007.43 1008.11 1008.91 1009.47 1010.03 1010.43 1010.55 1010.55 1010.51 1010.63 1010.83 1010.87 1010.95 1011.15 1011.31 1011.43 1011.55 1011.67 1011.91 1012.11 1012.31 1012.51 1012.71 1012.91 1013.11 1013.31 1013.55 1013.63 1013.67 1013.75 1014.07 1014.39 1014.67 1014.79 1014.91 1015.07 1015.15 1015.11 1015.07 1015.07 1014.99 1014.99 1014.95 1015.15 1015.27 1015.43 1015.47 1015.63 1015.83 1016.03 1016.07 1016.15 1016.31 1016.43 1016.47 1016.71 1017.03 1017.19 1017.35 1017.27 1017.75 1018.03 1018.27
1007.51 1008.23 1008.95 1009.43 1009.95 1010.23 1010.35 1010.39 1010.39 1010.59 1010.71 1010.83 1010.83 1010.91 1011.11 1011.27 1011.39 1011.51 1011.71 1011.91 1012.15 1012.39 1012.51 1012.75 1013.03 1013.27 1013.39 1013.51 1013.59 1013.75 1013.87 1014.07 1014.39 1014.63 1014.79 1014.87 1015.03 1015.11 1015.15 1015.07 1014.95 1014.87 1014.83 1014.95 1015.07 1015.19 1015.27 1015.47 1015.59 1015.75 1015.87 1016.07 1016.19 1016.27 1016.31 1016.27 1016.63 1017.11 1017.27 1017.63 1017.71 1018.15 1018.39
1007.91 1008.63 1009.07 1009.35 1009.79 1010.07 1010.19 1010.27 1010.27 1010.35 1010.47 1010.59 1010.75 1010.75 1010.83 1011.03 1011.19 1011.39 1011.59 1011.79 1011.99 1012.19 1012.43 1012.67 1012.91 1013.11 1013.19 1013.31 1013.43 1013.59 1013.71 1013.91 1014.19 1014.39 1014.55 1014.71 1014.87 1014.95 1014.95 1014.99 1014.95 1014.95 1014.91 1014.95 1015.07 1015.15 1015.23 1015.31 1015.43 1015.59 1015.83 1015.91 1015.99 1016.11 1016.23 1016.35 1016.51 1016.71 1017.23 1017.51 1017.91 1017.71 1017.91
1008.35 1008.95 1009.15 1009.39 1009.71 1009.95 1010.07 1010.11 1010.11 1010.11 1010.27 1010.43 1010.47 1010.63 1010.75 1010.79 1011.03 1011.19 1011.43 1011.63 1011.87 1012.07 1012.31 1012.55 1012.87 1012.95 1012.99 1013.11 1013.27 1013.43 1013.55 1013.71 1013.99 1014.15 1014.31 1014.43 1014.55 1014.71 1014.83 1014.79 1014.79 1014.87 1014.95 1015.07 1015.27 1015.35 1015.43 1015.47 1015.51 1015.63 1015.83 1015.83 1015.91 1015.99 1016.23 1016.35 1016.55 1016.71 1016.95 1017.27 1017.55 1017.71 1017.83
1008.91 1009.03 1009.19 1009.47 1009.71 1009.83 1009.91 1009.91 1009.91 1009.87 1009.95 1010.27 1010.35 1010.43 1010.59 1010.71 1010.79 1010.99 1011.07 1011.31 1011.51 1011.87 1012.15 1012.39 1012.55 1012.71 1012.91 1013.07 1013.19 1013.27 1013.35 1013.55 1013.75 1013.95 1014.11 1014.27 1014.43 1014.59 1014.67 1014.75 1014.83 1014.87 1014.91 1015.11 1015.31 1015.39 1015.35 1015.39 1015.43 1015.63 1015.75 1015.79 1015.87 1016.07 1016.27 1016.39 1016.31 1016.47 1016.83 1017.07 1017.11 1017.63 1017.95
1008.91 1008.95 1009.11 1009.39 1009.59 1009.67 1009.71 1009.71 1009.71 1009.79 1009.79 1009.95 1010.15 1010.31 1010.31 1010.43 1010.47 1010.55 1010.79 1011.03 1011.31 1011.63 1011.91 1012.07 1012.27 1012.51 1012.71 1012.87 1013.03 1013.27 1013.51 1013.71 1013.91 1014.03 1014.11 1014.19 1014.31 1014.47 1014.63 1014.79 1014.87 1014.87 1014.95 1015.03 1015.19 1015.27 1015.43 1015.59 1015.63 1015.75 1015.83 1015.91 1015.95 1015.99 1016.11 1016.35 1016.47 1016.55 1016.95 1017.23 1017.39 1017.35 1017.75
1008.55 1008.71 1008.99 1009.19 1009.35 1009.47 1009.55 1009.59 1009.59 1009.55 1009.67 1009.79 1009.87 1009.91 1010.07 1010.19 1010.27 1010.39 1010.59 1010.83 1011.07 1011.35 1011.59 1011.83 1012.03 1012.23 1012.47 1012.79 1013.07 1013.31 1013.51 1013.75 1014.07 1014.19 1014.27 1014.31 1014.43 1014.55 1014.71 1014.79 1014.79 1014.95 1014.99 1015.07 1015.15 1015.35 1015.51 1015.79 1015.95 1016.07 1016.19 1016.11 1016.11 1016.11 1016.19 1016.31 1016.51 1016.71 1016.91 1017.19 1017.35 1017.59 1017.71
1008.11 1008.39 1008.67 1008.95 1009.11 1009.31 1009.43 1009.47 1009.47 1009.51 1009.51 1009.59 1009.55 1009.59 1009.71 1009.87 1010.19 1010.43 1010.67 1010.91 1011.11 1011.11 1011.43 1011.71 1011.95 1012.19 1012.55 1012.87 1012.99 1013.31 1013.55 1013.71 1013.95 1014.27 1014.43 1014.47 1014.47 1014.55 1014.63 1014.91 1014.99 1015.07 1015.11 1015.23 1015.31 1015.51 1015.71 1015.83 1015.87 1016.07 1016.19 1016.11 1016.15 1016.19 1016.31 1016.27 1016.47 1016.71 1016.99 1017.11 1017.35 1017.47 1017.63
1007.75 1008.03 1008.35 1008.59 1008.79 1008.99 1009.19 1009.39 1009.47 1009.47 1009.47 1009.43 1009.43 1009.47 1009.55 1009.67 1009.95 1010.19 1010.51 1011.15 1011.43 1011.15 1011.47 1011.71 1011.87 1012.03 1012.23 1012.71 1013.11 1013.39 1013.63 1013.79 1013.95 1014.11 1014.31 1014.51 1014.63 1014.63 1014.75 1014.95 1015.07 1015.11 1015.27 1015.35 1015.47 1015.63 1015.75 1015.87 1015.99 1016.03 1016.15 1016.15 1016.19 1016.27 1016.35 1016.39 1016.47 1016.63 1016.83 1017.11 1017.23 1017.39 1017.63
1007.15 1007.63 1007.83 1008.15 1008.43 1008.75 1009.03 1009.23 1009.39 1009.39 1009.43 1009.43 1009.43 1009.55 1009.91 1010.47 1010.43 1011.11 1011.23 1011.07 1010.99 1011.27 1011.59 1011.79 1011.91 1012.07 1012.43 1012.71 1012.99 1013.35 1013.55 1013.83 1013.99 1014.23 1014.43 1014.47 1014.63 1014.79 1014.91 1015.15 1015.39 1015.39 1015.39 1015.47 1015.63 1015.71 1015.95 1016.11 1016.23 1016.27 1016.35 1016.35 1016.35 1016.23 1016.35 1016.59 1016.67 1016.59 1016.67 1016.91 1017.15 1017.27 1017.35
1006.59 1006.99 1007.35 1007.71 1008.07 1008.43 1008.83 1009.15 1009.31 1009.31 1009.35 1009.43 1009.47 1010.07 1010.39 1010.07 1010.39 1011.19 1011.63 1011.27 1011.07 1011.35 1011.67 1011.95 1012.03 1012.27 1012.51 1012.67 1012.91 1013.23 1013.47 1013.71 1013.99 1014.19 1014.39 1014.55 1014.67 1014.83 1015.03 1015.31 1015.55 1015.63 1015.67 1015.67 1015.75 1015.95 1016.23 1016.31 1016.35 1016.47 1016.55 1016.63 1016.67 1016.71 1016.59 1016.43 1016.59 1016.75 1016.71 1016.75 1016.99 1017.11 1017.15
1006.07 1006.43 1006.83 1007.23 1007.71 1008.23 1008.71 1009.07 1009.19 1009.27 1009.27 1009.31 1009.87 1009.91 1009.87 1010.15 1010.35 1010.71 1011.19 1011.07 1011.31 1011.63 1011.91 1012.23 1012.11 1012.35 1012.63 1012.79 1012.91 1013.07 1013.39 1013.59 1013.87 1014.19 1014.43 1014.55 1014.71 1014.83 1015.03 1015.35 1015.63 1015.75 1015.75 1015.71 1015.83 1016.11 1016.27 1016.55 1016.67 1016.75 1016.83 1016.91 1017.07 1017.11 1017.07 1016.99 1016.79 1016.55 1016.71 1016.79 1016.87 1017.15 1017.27
1005.79 1006.07 1006.43 1006.91 1007.47 1008.07 1008.55 1008.87 1008.95 1008.99 1009.07 1009.27 1009.59 1009.63 1009.79 1010.31 1010.23 1010.39 1010.59 1010.91 1011.35 1011.71 1011.95 1012.35 1012.27 1012.43 1012.71 1012.91 1013.03 1013.11 1013.27 1013.43 1013.63 1013.95 1014.27 1014.55 1014.71 1014.75 1014.91 1015.15 1015.55 1015.83 1015.95 1015.95 1016.03 1016.19 1016.47 1016.67 1016.87 1016.95 1017.07 1017.23 1017.35 1017.35 1017.31 1017.23 1017.23 1017.23 1017.11 1016.95 1016.95 1016.99 1017.71
1005.51 1005.79 1006.23 1006.71 1007.27 1007.87 1008.35 1008.71 1008.87 1008.91 1008.91 1009.07 1009.31 1009.79 1009.99 1010.51 1010.35 1010.31 1010.55 1010.75 1011.15 1011.75 1012.03 1012.35 1012.47 1012.59 1012.83 1012.99 1013.15 1013.23 1013.35 1013.51 1013.71 1013.99 1014.35 1014.63 1014.63 1014.67 1014.83 1015.03 1015.27 1015.63 1015.91 1015.99 1016.07 1016.23 1016.47 1016.75 1016.91 1017.19 1017.35 1017.51 1017.67 1017.83 1017.79 1017.67 1017.55 1017.43 1017.31 1017.47 1017.55 1017.71 1017.87
1005.23 1005.55 1006.11 1006.63 1007.15 1007.71 1008.15 1008.47 1008.75 1008.87 1008.91 1009.15 1009.47 1009.79 1010.19 1010.31 1010.43 1010.91 1010.83 1010.75 1011.27 1011.91 1012.31 1012.55 1012.63 1012.75 1012.91 1013.11 1013.35 1013.43 1013.51 1013.59 1013.75 1014.11 1014.51 1014.71 1014.71 1014.71 1014.83 1015.03 1015.31 1015.59 1015.79 1015.91 1016.07 1016.23 1016.39 1016.67 1016.83 1017.07 1017.47 1017.79 1017.87 1018.03 1018.23 1018.47 1018.19 1017.91 1017.83 1017.83 1017.91 1017.99 1018.19
1005.27 1005.43 1005.91 1006.55 1006.99 1007.47 1007.99 1008.47 1008.67 1008.71 1008.83 1008.95 1009.31 1009.71 1009.99 1010.15 1010.35 1010.63 1010.99 1011.11 1011.47 1012.03 1012.35 1012.63 1012.71 1013.03 1013.19 1013.39 1013.47 1013.63 1013.59 1013.59 1013.79 1014.19 1014.55 1014.71 1014.71 1014.75 1014.83 1014.99 1015.23 1015.55 1015.79 1015.87 1016.07 1016.31 1016.43 1016.47 1016.95 1017.31 1017.59 1017.87 1018.15 1018.11 1018.43 1018.55 1018.47 1018.35 1018.31 1018.31 1018.39 1018.47 1018.51
1005.15 1005.35 1005.71 1006.31 1006.83 1007.35 1007.83 1008.23 1008.43 1008.51 1008.51 1008.75 1009.19 1009.79 1009.87 1010.15 1010.47 1010.67 1010.67 1011.15 1011.35 1011.83 1012.23 1012.63 1012.87 1013.15 1013.55 1013.51 1013.43 1013.51 1013.47 1013.47 1013.79 1014.23 1014.63 1014.79 1014.71 1014.71 1014.75 1014.83 1015.11 1015.47 1015.67 1015.79 1016.11 1016.39 1016.47 1016.51 1017.03 1017.47 1017.63 1017.87 1017.99 1018.23 1018.59 1018.63 1018.55 1018.67 1018.59 1018.55 1018.55 1018.55 1018.55
1005.03 1005.15 1005.47 1006.11 1006.63 1007.27 1007.75 1008.03 1008.27 1008.39 1008.39 1008.47 1009.07 1009.55 1009.71 1010.15 1010.55 1010.71 1010.59 1010.83 1011.19 1011.51 1012.11 1012.63 1013.07 1013.27 1013.75 1013.67 1013.47 1013.35 1013.23 1013.35 1013.83 1014.35 1014.71 1014.95 1014.79 1014.67 1014.79 1014.87 1015.03 1015.27 1015.43 1015.63 1016.07 1016.39 1016.51 1016.59 1017.03 1017.31 1017.59 1017.79 1018.07 1018.23 1018.51 1018.59 1018.51 1018.59 1018.63 1018.59 1018.67 1018.55 1018.63
1004.83 1004.95 1005.19 1005.95 1006.59 1007.11 1007.59 1007.99 1008.31 1008.39 1008.47 1008.79 1009.31 1009.43 1009.75 1010.03 1010.43 1010.75 1010.83 1010.99 1011.31 1011.47 1011.95 1012.63 1013.11 1013.43 1013.79 1013.75 1013.39 1013.15 1013.03 1013.23 1013.83 1014.47 1014.75 1014.83 1014.79 1014.75 1014.79 1014.99 1015.19 1015.23 1015.39 1015.59 1016.07 1016.43 1016.47 1016.55 1016.83 1017.35 1017.55 1017.71 1017.91 1018.15 1018.59 1018.71 1018.75 1018.79 1018.95 1019.03 1019.11 1019.11 1019.19
1004.75 1004.91 1005.07 1005.79 1006.55 1007.15 1007.51 1007.87 1008.19 1008.43 1008.63 1009.15 1009.39 1009.59 1009.79 1010.07 1010.39 1010.79 1010.95 1011.07 1011.35 1011.83 1012.03 1012.31 1013.11 1013.43 1013.71 1013.67 1013.27 1012.95 1012.91 1013.15 1013.75 1014.31 1014.63 1014.79 1014.63 1014.67 1014.95 1015.15 1015.35 1015.47 1015.47 1015.67 1015.99 1016.35 1016.47 1016.55 1016.71 1017.15 1017.35 1017.39 1017.55 1017.95 1018.55 1018.75 1018.91 1018.91 1019.07 1019.23 1019.35 1019.43 1019.43
1005.15 1005.19 1005.43 1006.11 1006.79 1007.19 1007.51 1007.71 1007.99 1008.27 1008.63 1008.95 1009.35 1009.67 1009.99 1010.27 1010.55 1010.91 1011.19 1011.39 1011.67 1012.07 1012.51 1012.59 1012.83 1013.43 1013.63 1013.39 1013.07 1012.83 1012.91 1013.23 1013.55 1014.07 1014.55 1014.75 1014.87 1014.83 1014.95 1015.19 1015.39 1015.67 1015.71 1015.75 1016.03 1016.31 1016.43 1016.55 1016.75 1017.07 1017.27 1017.43 1017.87 1018.19 1018.51 1018.71 1018.99 1019.23 1019.31 1019.47 1019.55 1019.67 1019.75
1005.43 1005.19 1005.47 1006.15 1006.87 1007.27 1007.55 1007.91 1008.23 1008.31 1008.59 1008.99 1009.39 1009.83 1010.15 1010.35 1010.63 1011.03 1011.43 1011.79 1012.11 1012.39 1012.79 1013.19 1013.43 1013.55 1013.63 1013.15 1013.03 1012.95 1012.99 1013.31 1013.63 1013.71 1014.03 1014.43 1014.51 1014.83 1015.23 1015.31 1015.51 1015.79 1015.91 1015.99 1016.15 1016.35 1016.51 1016.63 1016.87 1016.99 1017.35 1017.71 1017.95 1018.35 1018.55 1018.75 1019.07 1019.35 1019.55 1019.63 1019.75 1019.87 1019.95
1005.59 1005.19 1005.87 1006.67 1007.27 1007.51 1007.75 1008.03 1008.23 1008.39 1008.55 1008.91 1009.31 1009.71 1010.07 1010.31 1010.67 1011.07 1011.47 1011.95 1012.35 1012.71 1013.03 1013.35 1013.67 1013.91 1013.47 1013.07 1013.11 1013.19 1013.31 1013.39 1013.55 1013.59 1013.75 1013.99 1014.59 1014.91 1015.11 1015.31 1015.51 1015.83 1015.99 1016.07 1016.15 1016.35 1016.55 1016.67 1016.83 1017.11 1017.43 1017.75 1018.11 1018.35 1018.51 1018.79 1019.07 1019.35 1019.59 1019.75 1019.91 1020.07 1020.11
Wind_Speed
10 9 6 5 5 6 8 9 8 8 8 9 9 8 9 7 7 7 6 6 5 5 5 5 5 5 5 4 4 6 5 5 6 6 6 5 5 3 3 4 1 1 1 1 4 8 5 4 4 2 2 4 1 3 5 5 7 8 8 7 8 7 6
8 6 4 5 6 6 8 7 8 8 8 8 8 9 9 8 7 7 6 6 5 4 4 5 4 5 7 6 4 4 4 4 5 6 5 6 6 5 3 2 1 2 2 1 2 2 2 1 2 1 2 1 3 5 3 5 3 5 7 8 8 9 8
6 5 6 6 7 7 9 9 8 8 8 8 8 8 8 8 7 6 6 6 6 5 4 5 5 5 5 5 5 5 5 5 6 6 8 7 6 6 6 6 5 1 1 2 1 2 5 4 8 6 4 4 3 3 4 3 2 3 5 6 8 8 8
8 8 7 6 7 8 9 9 9 8 8 9 8 7 8 8 7 6 6 6 5 5 5 5 5 6 5 5 5 4 4 6 7 7 6 6 6 6 6 6 7 7 8 6 6 3 3 3 2 4 5 6 7 5 4 3 5 4 3 5 7 8 8
10 9 10 10 9 10 9 9 7 7 8 8 7 8 7 8 6 6 5 5 6 6 6 5 5 5 5 5 5 5 6 7 6 5 5 6 6 6 6 6 7 7 6 6 6 7 9 9 7 4 7 3 1 4 1 3 5 8 8 6 7 8 8
10 10 9 8 8 9 8 9 9 9 8 8 8 8 7 8 6 6 6 6 5 6 5 5 5 5 5 5 6 6 6 5 5 5 6 7 7 7 7 7 7 6 7 5 4 6 1 6 6 4 5 6 5 4 4 3 3 5 7 5 7 8 8
10 10 8 8 8 7 8 10 10 10 9 9 9 8 8 8 6 7 7 7 6 6 6 6 5 5 5 6 6 8 7 5 4 6 7 5 5 7 5 5 5 6 6 4 5 4 6 6 3 3 3 1 1 3 1 2 2 3 4 4 5 8 8
10 9 8 7 8 8 8 9 9 8 9 8 9 7 7 8 7 6 6 6 6 6 6 6 6 5 5 6 7 8 6 3 5 6 5 5 6 6 5 5 7 5 5 5 5 6 5 6 6 5 5 2 1 1 3 3 3 6 4 3 6 7 8
10 8 7 6 8 8 8 8 9 8 7 7 7 8 7 8 7 6 6 7 7 7 7 7 6 6 6 7 7 7 3 1 4 3 2 4 6 6 7 4 4 6 5 4 5 5 6 5 4 5 6 7 7 4 3 4 4 6 4 4 3 7 8
12 12 10 9 9 7 7 7 8 7 7 8 8 7 7 6 6 7 7 7 7 7 7 6 6 6 6 6 7 4 4 2 3 2 2 2 1 2 2 3 5 5 3 3 3 5 7 3 4 3 5 10 8 6 5 6 6 6 5 6 5 5 8
13 11 9 9 7 7 6 7 6 7 8 8 7 7 6 7 6 7 7 7 7 7 7 6 6 6 6 6 7 4 4 3 3 3 3 3 2 3 2 3 3 5 3 3 4 3 7 7 7 7 8 6 2 6 6 7 7 6 3 5 4 5 7
10 10 9 8 7 8 8 7 7 8 8 7 7 7 7 7 7 6 6 6 6 7 6 6 6 6 7 7 7 5 5 4 3 3 2 2 2 3 4 4 3 4 3 4 2 1 5 6 6 6 4 2 3 3 5 5 3 3 4 5 5 5 9
9 10 9 9 9 9 8 8 8 8 8 7 7 7 7 7 7 7 7 7 6 6 6 6 7 6 7 7 7 6 6 5 4 5 4 3 3 2 3 4 4 5 2 1 2 3 3 3 4 4 4 4 2 1 1 2 4 4 2 4 2 3 9
9 8 9 9 9 8 8 8 8 8 5 6 6 7 7 7 7 7 7 7 7 7 7 6 6 6 7 7 6 5 5 6 6 5 3 3 3 3 3 4 4 2 2 4 3 4 3 4 5 5 4 4 5 5 5 4 4 4 1 2 5 5 7
9 7 8 8 9 9 8 8 8 6 7 7 6 8 8 7 7 7 7 7 7 7 7 7 6 7 7 7 6 3 4 5 5 4 4 4 4 4 4 4 5 4 4 4 4 5 4 4 5 5 5 6 6 6 5 4 2 2 2 2 4 5 7
7 8 9 8 9 9 8 8 7 8 7 6 6 7 7 7 8 8 7 8 8 7 8 7 6 6 7 7 6 4 5 5 5 5 5 4 4 4 3 4 5 4 3 3 3 3 3 3 4 5 5 5 5 4 4 3 3 2 4 2 4 7 6
5 7 9 8 9 8 8 7 7 8 8 7 8 7 7 8 8 8 8 8 8 8 7 6 7 8 8 7 6 6 5 5 5 5 5 5 4 5 5 3 4 3 2 3 2 1 1 2 3 3 3 3 4 3 4 5 3 3 2 5 4 7 8
7 8 9 8 9 8 8 8 8 9 8 8 8 7 7 8 8 9 9 8 8 8 7 7 8 7 6 6 6 6 5 4 4 5 5 6 6 6 4 5 4 3 3 3 0 0 2 1 3 4 3 1 1 2 2 1 3 2 5 5 6 3 4
8 9 9 8 9 8 8 8 9 8 9 8 7 8 8 7 8 9 9 9 9 8 8 8 8 8 6 6 5 6 5 5 4 5 5 4 5 5 5 4 3 3 3 3 3 3 3 3 2 3 3 2 3 5 5 4 5 4 6 7 8 6 4
8 9 8 7 7 7 7 7 8 8 8 8 8 8 8 9 8 10 9 9 9 9 9 8 8 7 6 6 6 4 3 3 3 3 3 4 3 3 3 3 3 3 3 4 4 3 4 3 3 3 3 5 4 6 6 4 3 5 6 6 4 4 7
9 8 7 7 7 7 7 6 7 7 7 8 8 9 9 9 8 7 9 9 9 9 9 8 7 7 7 6 6 5 6 6 5 3 3 3 3 2 2 2 4 3 3 3 4 4 5 5 3 4 1 3 3 5 5 4 4 5 7 6 6 6 5
8 8 8 8 8 7 7 6 6 6 7 7 7 8 8 9 7 6 6 3 5 7 7 6 6 6 6 5 6 7 7 7 7 6 4 3 3 4 4 3 3 3 4 6 8 7 6 4 5 5 3 3 4 4 4 4 5 5 3 4 4 3 4
8 9 9 9 8 8 7 7 6 7 7 7 6 6 8 8 8 8 9 8 5 5 5 4 7 12 10 8 7 6 5 5 6 6 7 6 4 4 4 4 4 10 11 11 11 11 11 9 7 5 4 4 5 5 5 5 4 4 5 5 4 6 5
10 10 9 8 8 8 8 7 7 7 7 6 7 5 5 5 6 3 5 7 7 6 5 4 12 14 14 13 9 7 7 6 5 5 4 6 6 5 5 5 4 7 9 9 10 13 12 12 12 13 12 9 6 5 6 6 3 2 3 4 3 4 5
11 10 10 9 9 8 7 7 7 7 6 6 4 6 7 8 6 7 6 5 7 6 5 8 14 14 15 15 12 8 7 7 6 5 5 6 5 6 6 5 4 4 5 8 8 10 10 11 13 12 12 11 10 9 5 5 4 2 2 4 4 3 5
11 11 10 9 8 8 8 8 8 7 8 5 4 7 8 6 8 7 8 8 7 6 6 9 14 15 14 14 14 11 7 7 7 6 6 6 6 7 7 6 5 4 5 11 8 8 9 9 10 12 11 11 11 10 10 10 6 3 5 5 4 1 2
10 10 10 9 9 8 9 9 8 7 6 6 6 7 8 8 7 9 9 9 8 7 8 8 13 14 14 13 13 9 6 7 7 7 7 6 6 7 8 7 7 5 4 5 6 7 7 7 6 6 6 6 5 7 9 10 9 8 5 4 4 2 1
10 10 10 10 9 9 9 8 7 7 7 8 8 7 8 7 6 7 9 9 9 8 7 11 12 14 13 13 12 8 5 5 6 6 6 6 7 7 7 7 7 7 6 5 5 8 8 7 7 6 6 6 5 5 6 6 6 4 5 5 6 5 3
10 10 10 10 10 10 9 9 9 6 5 5 4 4 6 7 9 6 6 10 10 8 6 9 10 12 13 12 10 5 6 6 7 6 6 5 5 6 7 7 7 7 6 5 7 10 10 8 8 8 7 5 5 6 7 5 6 7 5 5 4 4 3
9 11 11 11 10 10 9 8 6 6 7 7 8 7 7 5 6 8 7 7 10 8 7 8 9 9 10 10 7 5 6 6 7 7 6 5 6 6 6 7 7 6 6 5 8 12 13 11 8 8 7 6 5 6 6 5 9 11 11 11 10 9 7
10 11 12 12 10 9 7 6 8 6 8 8 7 7 9 7 7 6 10 10 11 10 8 7 9 7 8 11 8 7 7 7 7 6 5 4 5 6 7 12 9 7 6 6 10 12 13 11 8 8 8 7 6 6 4 3 5 5 7 9 9 10 10
10 11 12 11 10 10 9 9 7 6 6 6 8 8 7 8 8 6 7 9 12 12 9 6 7 7 8 10 7 6 7 7 8 6 6 3 2 6 6 8 11 9 7 8 13 12 12 10 9 8 8 8 7 6 5 4 6 6 4 5 5 6 7
9 11 12 10 9 9 7 7 7 6 5 4 8 7 8 8 9 6 6 8 8 8 9 6 6 7 8 9 8 7 7 8 8 7 6 6 5 3 5 5 7 11 11 12 12 12 12 13 9 7 7 7 7 6 4 4 3 5 4 4 4 4 4
10 9 10 11 9 8 8 8 7 6 6 7 7 7 7 7 8 7 6 6 7 6 8 9 7 9 10 9 9 10 7 8 8 8 7 6 6 7 6 6 5 8 12 12 12 13 13 14 12 9 7 8 7 7 7 5 4 6 6 5 4 4 5
5 7 9 9 9 9 7 8 8 8 6 8 8 8 7 7 7 7 5 5 6 6 7 8 9 9 11 8 7 10 8 8 10 9 7 5 5 6 7 7 6 8 11 12 12 13 14 14 13 8 7 9 11 14 8 6 6 5 6 5 5 5 4
8 9 10 10 9 9 8 8 7 7 8 7 9 9 9 8 8 8 6 5 5 5 5 4 6 7 9 8 8 9 11 9 11 9 9 7 7 6 4 5 6 9 10 11 11 12 13 14 11 7 11 12 14 13 9 7 6 6 5 5 5 5 5
7 8 9 9 8 9 9 8 7 7 8 8 8 9 8 8 8 8 8 6 5 5 4 4 3 7 6 10 10 10 11 12 11 7 8 8 6 7 7 6 7 10 9 9 10 10 12 12 8 12 13 14 15 11 7 8 6 6 5 5 5 5 4
Wind_Direction
194 194 184 172 157 153 167 178 172 174 178 181 180 186 187 179 169 169 168 170 171 172 156 167 182 196 199 209 193 196 194 191 190 204 221 213 200 245 192 184 155 65 146 85 161 176 163 177 240 297 356 24 55 284 263 224 179 180 173 167 167 165 159
188 176 158 151 159 164 166 173 174 172 176 185 184 182 186 181 176 176 171 170 171 173 158 160 183 194 195 193 197 193 199 208 195 212 205 217 205 208 149 241 150 199 198 138 112 110 123 80 351 275 281 296 152 210 279 312 265 176 174 170 169 163 159
170 169 162 163 166 170 173 172 172 173 177 180 186 182 182 184 182 174 170 171 174 172 161 171 185 201 202 194 198 201 199 207 213 206 208 216 205 212 198 180 185 193 282 301 249 181 82 125 205 201 197 187 194 222 199 160 307 277 172 161 158 155 155
177 172 170 172 169 174 176 176 174 176 176 181 179 184 183 185 185 174 171 175 171 171 171 173 193 202 198 194 196 193 202 213 221 216 219 220 206 212 218 199 202 189 192 202 211 200 178 187 193 190 164 199 194 216 230 141 180 246 281 171 154 155 155
179 185 187 184 184 181 175 173 171 170 183 181 181 179 185 190 184 174 175 173 171 173 179 180 192 200 201 194 190 189 204 217 225 217 213 215 209 212 217 216 219 212 214 210 208 188 198 210 200 180 180 192 225 225 236 140 182 202 216 192 159 153 157
183 192 193 189 191 182 176 170 172 181 177 179 189 179 186 189 177 172 177 177 175 175 178 177 195 197 201 203 205 212 210 203 201 197 198 209 197 196 213 217 215 214 223 222 186 189 147 77 140 176 229 180 177 188 214 161 190 194 204 201 148 153 154
182 191 194 193 197 189 177 177 179 180 181 185 180 185 183 188 183 182 180 178 173 177 178 182 184 189 194 203 209 218 224 212 177 193 203 202 197 211 201 205 215 216 222 195 186 126 127 148 161 176 147 259 109 157 157 171 180 162 231 190 147 149 156
178 187 192 195 195 192 185 178 181 178 181 183 181 180 182 186 186 176 177 174 180 186 182 181 178 181 191 203 215 226 225 196 193 192 201 190 204 209 205 204 213 218 208 194 166 170 153 162 163 157 133 118 322 148 190 190 178 216 187 126 142 151 164
176 179 182 192 200 195 187 181 178 180 180 176 180 182 189 183 179 172 172 178 182 188 190 184 179 177 188 197 223 223 192 103 183 202 217 209 218 210 208 203 204 229 215 199 198 138 160 167 154 177 167 182 185 209 202 211 207 229 192 144 126 165 165
183 183 186 195 198 197 186 183 179 178 175 181 185 186 180 185 174 168 170 176 181 189 191 186 180 184 175 194 221 198 135 150 108 104 106 147 239 222 203 190 216 237 239 224 216 142 153 143 216 195 180 195 198 163 169 205 217 217 199 178 146 175 175
189 179 177 188 193 187 193 184 173 177 187 188 184 181 177 181 175 172 167 169 179 183 188 182 183 179 167 204 220 170 142 144 121 130 145 140 182 191 198 205 227 249 237 216 229 135 117 156 178 178 198 217 184 187 176 187 218 206 189 168 168 140 177
184 170 179 185 181 191 189 186 183 186 188 184 179 176 176 180 177 177 170 170 174 180 180 181 182 173 176 206 222 178 150 148 155 194 205 139 185 173 191 206 217 237 218 234 253 163 143 155 172 165 182 186 161 215 194 164 185 265 164 179 189 145 160
174 169 180 182 189 192 189 185 186 190 191 181 182 176 177 180 180 176 176 172 174 174 178 181 181 175 177 201 209 194 155 152 170 209 222 183 173 178 191 214 219 223 209 197 174 241 211 172 178 174 171 178 221 131 175 148 182 248 221 161 110 109 151
172 168 176 185 187 191 192 190 191 192 174 184 179 180 184 185 182 179 175 177 175 177 178 178 181 174 182 197 209 199 159 157 176 208 199 197 203 204 219 230 240 242 177 198 207 220 223 192 171 209 192 182 195 194 182 178 187 243 357 96 150 147 147
169 165 177 179 184 191 194 193 192 180 183 187 178 185 187 186 182 180 177 180 180 180 179 178 177 172 183 191 200 191 170 163 174 189 191 189 191 212 215 235 252 248 227 223 206 204 207 180 170 177 186 187 204 200 188 147 181 172 183 61 87 108 147
168 173 179 176 186 192 193 193 184 182 186 185 189 185 184 181 182 179 180 182 180 180 180 174 172 180 184 180 182 184 173 171 174 181 192 196 188 193 208 227 245 248 251 245 233 218 196 187 175 189 189 170 181 174 130 125 116 95 126 78 124 139 161
166 174 181 180 186 189 188 187 183 184 184 183 188 190 181 181 176 178 180 180 179 175 175 171 171 183 177 174 178 186 189 180 172 180 186 185 186 190 211 222 236 214 213 230 281 294 239 174 165 153 130 128 130 154 151 114 113 146 142 127 172 172 169
176 182 183 180 184 181 183 180 184 185 180 186 186 178 183 177 175 177 179 177 174 170 172 167 175 180 179 179 181 184 193 192 173 176 183 187 186 191 199 215 213 197 195 211 135 75 17 55 56 64 70 56 133 170 123 141 119 116 144 157 160 189 158
188 182 179 178 179 179 178 180 182 185 179 181 178 178 175 177 176 179 179 174 168 171 171 174 179 177 181 181 182 191 193 192 180 178 187 187 180 185 195 201 196 178 167 165 141 128 118 104 85 88 111 108 97 100 104 129 184 162 153 173 164 147 179
181 176 176 173 173 177 180 183 177 178 179 172 172 177 176 175 179 180 176 168 168 171 174 177 177 179 181 185 183 161 135 128 135 160 178 173 169 169 153 154 165 167 160 152 145 139 111 95 85 79 114 127 132 119 119 109 110 129 148 158 179 165 160
166 166 164 170 175 181 182 182 184 174 170 174 175 175 175 174 180 173 170 171 172 174 175 178 181 182 184 169 144 143 144 139 133 125 122 109 109 114 131 158 145 139 138 142 136 129 116 114 101 94 61 97 99 104 111 115 101 123 149 158 167 159 174
157 157 161 167 174 181 186 187 183 178 178 183 178 176 173 171 167 167 139 169 181 169 163 176 179 170 149 142 145 146 151 145 141 136 126 112 106 111 97 86 94 113 108 98 99 106 107 118 124 100 57 88 82 94 83 67 76 87 90 136 130 136 144
155 155 163 170 177 181 185 187 184 182 187 184 181 171 170 173 168 170 163 166 173 147 164 167 169 153 147 147 143 137 131 136 141 148 144 135 120 101 89 79 88 94 92 96 100 97 95 88 80 92 126 105 101 78 81 78 66 94 121 136 160 162 157
155 163 166 167 172 180 186 184 188 186 186 183 177 166 129 131 159 163 164 165 145 139 146 148 144 136 137 136 135 139 140 142 139 139 143 138 129 112 93 91 92 97 97 92 98 100 95 88 84 81 74 74 80 120 116 94 88 103 123 143 165 155 171
159 163 162 168 172 180 181 184 188 187 181 184 154 128 162 158 138 152 174 148 132 132 130 143 139 137 141 143 142 141 143 142 145 145 147 135 130 121 114 104 92 101 113 120 118 101 89 90 92 86 80 74 70 58 73 136 142 94 130 135 132 175 177
161 161 165 165 168 170 178 186 188 184 189 169 137 179 159 143 158 147 149 140 124 125 125 155 141 142 143 146 144 142 148 147 144 149 144 141 136 131 124 116 108 103 117 119 112 112 112 99 91 90 82 74 60 57 48 34 23 135 150 122 131 158 194
161 159 159 162 164 169 178 188 186 181 173 158 179 169 158 164 161 150 147 138 136 140 140 162 147 145 150 152 150 148 157 154 151 150 148 143 143 138 136 134 129 125 125 122 124 118 114 109 101 79 64 54 48 33 34 35 42 57 79 128 137 128 352
157 153 156 162 165 173 178 178 174 174 174 176 172 172 164 164 154 143 145 139 133 140 152 156 155 152 155 158 161 155 155 142 135 135 134 146 148 144 144 140 140 143 148 143 143 132 119 116 101 89 75 59 54 43 39 24 12 16 64 76 89 102 78
158 153 156 162 168 173 176 176 172 167 160 140 146 133 108 134 141 153 153 132 127 137 143 159 160 158 161 165 164 155 156 142 132 130 140 155 150 144 139 141 141 147 153 153 152 131 123 119 105 97 87 76 63 57 48 33 33 46 61 76 80 80 52
166 156 157 165 173 171 169 171 167 166 157 159 153 153 142 126 132 135 139 129 128 143 151 167 160 167 168 169 160 161 153 138 132 137 155 163 159 147 147 148 147 150 151 159 153 132 127 115 109 105 101 88 74 72 51 36 49 61 70 74 76 76 76
169 161 159 169 170 164 159 162 171 175 167 164 153 128 138 135 124 153 143 144 149 149 157 153 158 166 194 192 180 163 158 143 135 138 150 166 160 154 158 159 152 151 155 164 152 136 131 120 116 121 116 110 100 93 82 80 77 65 77 92 94 89 77
172 164 160 162 161 159 163 168 170 175 177 163 131 137 131 127 141 158 151 144 148 145 154 149 154 174 213 212 184 162 152 139 132 141 142 141 150 156 156 158 157 157 163 165 151 143 141 130 131 136 135 124 126 133 166 149 123 108 86 70 47 58 47
174 168 155 148 152 156 151 146 161 167 173 122 123 135 132 140 145 148 139 139 146 146 139 129 157 177 210 219 193 161 149 140 144 151 154 153 140 144 155 156 163 159 156 157 152 150 150 142 140 142 134 137 139 163 179 138 110 102 89 91 77 64 67
170 161 146 145 146 146 153 155 153 155 144 122 128 132 135 136 130 134 134 134 134 137 142 136 159 179 200 215 175 155 151 145 145 148 156 154 151 151 152 159 160 165 159 161 154 158 157 153 148 148 152 153 174 155 138 132 125 115 113 107 95 80 76
143 134 120 127 146 153 151 148 153 150 142 139 136 133 133 132 129 128 123 126 134 132 159 157 145 183 201 194 151 150 140 150 153 145 145 142 144 151 161 164 167 177 168 162 158 157 160 160 155 147 166 150 128 134 145 132 124 122 114 109 107 97 88
144 141 136 138 148 146 140 139 145 146 140 136 132 134 139 139 136 132 122 115 100 107 108 141 168 176 198 130 116 124 136 141 165 151 146 157 168 157 150 152 157 162 166 161 164 160 159 162 157 157 149 138 141 144 135 131 129 122 120 119 110 112 112
152 121 114 131 150 140 137 140 144 149 146 139 138 139 143 141 135 132 133 121 116 98 120 119 184 216 160 118 107 115 136 155 166 161 151 153 152 148 152 163 159 159 161 160 161 162 160 161 156 149 147 146 145 150 141 134 132 133 128 121 117 125 140